Weather History for Cherokee, IA

Change the Weather History Date:

Sunday, October 27, 2013

  Actual Average Record
Temperature  
Mean Temperature 46 °F -  
Max Temperature 67 °F 59 °F 78 °F (1950)
Min Temperature 25 °F 34 °F 17 °F (1957)
Degree Days  
Heating Degree Days 19    
Moisture  
Dew Point 30 °F    
Average Humidity 60    
Maximum Humidity 92    
Minimum Humidity 27    
Precipitation  
Precipitation 0.00 in - - ()
Sea Level Pressure  
Sea Level Pressure 29.93 in    
Wind  
Wind Speed 5 mph (SW)    
Max Wind Speed 15 mph    
Max Gust Speed 21 mph    
Visibility 10 miles    
Events      
Averages and records for this station are not official NWS values.
T = Trace of Precipitation, MM = Missing Value Source: NWS Daily Summary

Daily Weather History Graph

Daily Weather History Graph

Search for Another Location

Airport:

Trip Planner

Search our weather history database for the weather conditions in past years. The results will help you decide how hot, cold, wet, or windy it might be!

Date:

Astronomy

Oct. 27, 2013 Rise Set
Actual Time 7:50 AM CDT 6:21 PM CDT
Civil Twilight 7:21 AM CDT 6:50 PM CDT
Nautical Twilight 6:48 AM CDT 7:23 PM CDT
Astronomical Twilight 6:15 AM CDT 7:56 PM CDT
Moon 12:39 AM CDT (10/27) 2:39 PM CDT (10/27)
Length of Visible Light 11h 29m
Length of Day
10h 30m
Last Quarter, 43% of the Moon is Illuminated
Oct 27
Last Quarter
Nov 3
New
Nov 9
First Quarter
Nov 17
Full
Nov 25
Last Quarter

Hourly Weather History & Observations

Time (CDT) Temp. Windchill Dew Point Humidity Pressure Visibility Wind Dir Wind Speed Gust Speed Precip Events Conditions
12:15 AM 29.1 °F - 25.9 °F 88% 30.10 in 10.0 mi Calm Calm - N/A   Clear
12:35 AM 29.7 °F - 26.6 °F 88% 30.09 in 10.0 mi Calm Calm - N/A   Clear
12:55 AM 28.4 °F - 25.5 °F 89% 30.09 in 10.0 mi Calm Calm - N/A   Clear
1:15 AM 28.8 °F 25.0 °F 26.4 °F 91% 30.08 in 10.0 mi SSE 3.5 mph - N/A   Clear
1:35 AM 28.6 °F - 25.7 °F 89% 30.07 in 10.0 mi Calm Calm - N/A   Clear
1:55 AM 28.0 °F - 25.2 °F 89% 30.07 in 10.0 mi Calm Calm - N/A   Clear
2:15 AM 28.2 °F 24.4 °F 25.0 °F 88% 30.06 in 10.0 mi South 3.5 mph - N/A   Clear
2:35 AM 29.1 °F - 26.2 °F 89% 30.05 in 10.0 mi Calm Calm - N/A   Clear
2:55 AM 28.4 °F - 25.3 °F 88% 30.04 in 10.0 mi Calm Calm - N/A   Clear
3:15 AM 26.1 °F 21.9 °F 23.5 °F 90% 30.04 in 10.0 mi South 3.5 mph - N/A   Clear
3:35 AM 28.2 °F - 25.7 °F 90% 30.03 in 10.0 mi Calm Calm - N/A   Clear
3:55 AM 25.9 °F 20.3 °F 23.0 °F 89% 30.02 in 10.0 mi South 4.6 mph - N/A   Clear
4:15 AM 25.3 °F - 23.2 °F 91% 30.01 in 10.0 mi Calm Calm - N/A   Clear
4:35 AM 27.0 °F - 25.0 °F 92% 30.01 in 10.0 mi Calm Calm - N/A   Clear
4:55 AM 27.5 °F - 25.2 °F 91% 30.00 in 10.0 mi Calm Calm - N/A   Clear
5:15 AM 27.5 °F - 25.3 °F 92% 29.99 in 10.0 mi Calm Calm - N/A   Clear
5:35 AM 28.4 °F - 25.5 °F 89% 29.99 in 10.0 mi Calm Calm - N/A   Clear
5:55 AM 28.2 °F - 25.3 °F 89% 29.98 in 10.0 mi Calm Calm - N/A   Clear
6:15 AM 28.6 °F 22.4 °F 25.7 °F 89% 29.98 in 10.0 mi South 5.8 mph - N/A   Clear
6:35 AM 30.7 °F 24.1 °F 27.1 °F 86% 29.97 in 10.0 mi South 6.9 mph - N/A   Clear
6:55 AM 32.0 °F 24.2 °F 27.5 °F 83% 29.96 in 10.0 mi South 9.2 mph - N/A   Clear
7:15 AM 32.9 °F 25.9 °F 27.3 °F 80% 29.95 in 10.0 mi South 8.1 mph - N/A   Clear
7:35 AM 32.2 °F 27.7 °F 26.8 °F 80% 29.94 in 10.0 mi South 4.6 mph - N/A   Clear
7:55 AM 32.0 °F 26.4 °F 26.6 °F 80% 29.94 in 10.0 mi South 5.8 mph - N/A   Clear
8:15 AM 32.9 °F 27.5 °F 27.5 °F 81% 29.93 in 10.0 mi South 5.8 mph - N/A   Clear
8:35 AM 34.0 °F 31.0 °F 28.9 °F 82% 29.92 in 10.0 mi South 3.5 mph - N/A   Clear
8:55 AM 35.2 °F 29.5 °F 29.8 °F 81% 29.92 in 10.0 mi South 6.9 mph - N/A   Clear
9:15 AM 37.6 °F 32.3 °F 30.9 °F 77% 29.92 in 10.0 mi South 6.9 mph - N/A   Clear
9:35 AM 40.3 °F 34.9 °F 31.5 °F 71% 29.91 in 10.0 mi South 8.1 mph - N/A   Clear
9:55 AM 43.5 °F 37.9 °F 31.1 °F 62% 29.91 in 10.0 mi SSW 10.4 mph - N/A   Clear
10:15 AM 45.5 °F 39.9 °F 29.8 °F 54% 29.90 in 10.0 mi SSW 11.5 mph - N/A   Clear
10:35 AM 48.0 °F - 29.5 °F 49% 29.89 in 10.0 mi South 12.7 mph - N/A   Clear
10:55 AM 49.8 °F - 29.7 °F 46% 29.88 in 10.0 mi South 13.8 mph - N/A   Clear
11:15 AM 51.8 °F - 29.7 °F 43% 29.87 in 10.0 mi SSW 12.7 mph - N/A   Clear
11:35 AM 54.9 °F - 29.8 °F 38% 29.87 in 10.0 mi SSW 12.7 mph - N/A   Clear
11:55 AM 56.3 °F - 30.2 °F 37% 29.87 in 10.0 mi SW 11.5 mph - N/A   Clear
12:15 PM 57.2 °F - 30.0 °F 36% 29.86 in 10.0 mi SSW 13.8 mph - N/A   Clear
12:35 PM 59.0 °F - 30.2 °F 34% 29.85 in 10.0 mi SSW 15.0 mph 20.7 mph N/A   Clear
12:55 PM 59.4 °F - 29.8 °F 33% 29.84 in 10.0 mi SW 13.8 mph - N/A   Clear
1:15 PM 59.9 °F - 30.7 °F 33% 29.84 in 10.0 mi SSW 12.7 mph - N/A   Clear
1:35 PM 60.8 °F - 30.7 °F 32% 29.84 in 10.0 mi WSW 11.5 mph 18.4 mph N/A   Clear
1:55 PM 60.8 °F - 31.1 °F 33% 29.83 in 10.0 mi West 12.7 mph 16.1 mph N/A   Clear
2:15 PM 62.1 °F - 31.8 °F 32% 29.82 in 10.0 mi WSW 9.2 mph - N/A   Clear
2:35 PM 63.1 °F - 31.5 °F 30% 29.82 in 10.0 mi SW 10.4 mph - N/A   Clear
2:55 PM 64.6 °F - 32.0 °F 30% 29.81 in 10.0 mi WSW 10.4 mph - N/A   Clear
3:15 PM 65.3 °F - 32.0 °F 29% 29.80 in 10.0 mi WSW 9.2 mph - N/A   Clear
3:35 PM 66.6 °F - 31.8 °F 27% 29.80 in 10.0 mi WSW 11.5 mph - N/A   Clear
3:55 PM 66.6 °F - 32.0 °F 28% 29.81 in 10.0 mi West 10.4 mph 16.1 mph N/A   Clear
4:15 PM 67.1 °F - 31.8 °F 27% 29.81 in 10.0 mi WSW 10.4 mph - N/A   Clear
4:35 PM 67.1 °F - 32.2 °F 27% 29.82 in 10.0 mi WSW 10.4 mph - N/A   Clear
4:55 PM 67.1 °F - 32.2 °F 27% 29.82 in 10.0 mi West 6.9 mph - N/A   Clear
5:15 PM 66.6 °F - 32.9 °F 29% 29.82 in 10.0 mi WNW 5.8 mph - N/A   Clear
5:35 PM 65.3 °F - 34.3 °F 32% 29.83 in 10.0 mi NNW 4.6 mph - N/A   Clear
5:55 PM 62.6 °F - 35.4 °F 36% 29.84 in 10.0 mi North 4.6 mph - N/A   Clear
6:15 PM 60.8 °F - 35.2 °F 38% 29.85 in 10.0 mi NNE 4.6 mph - N/A   Clear
6:35 PM 59.4 °F - 35.2 °F 40% 29.87 in 10.0 mi North 8.1 mph - N/A   Clear
6:55 PM 57.0 °F - 34.9 °F 43% 29.87 in 10.0 mi NNE 9.2 mph - N/A   Clear
7:15 PM 54.7 °F - 34.7 °F 47% 29.88 in 10.0 mi NNE 5.8 mph - N/A   Clear
7:35 PM 52.7 °F - 34.9 °F 51% 29.89 in 10.0 mi North 5.8 mph - N/A   Clear
7:55 PM 51.6 °F - 35.1 °F 53% 29.91 in 10.0 mi NNE 6.9 mph - N/A   Clear
8:15 PM 53.6 °F - 33.1 °F 46% 29.92 in 10.0 mi North 12.7 mph 18.4 mph N/A   Clear
8:35 PM 53.1 °F - 32.5 °F 46% 29.94 in 10.0 mi NNE 11.5 mph - N/A   Clear
8:55 PM 52.0 °F - 32.9 °F 48% 29.95 in 10.0 mi NNE 10.4 mph - N/A   Clear
9:15 PM 50.2 °F - 33.1 °F 52% 29.96 in 10.0 mi NNE 8.1 mph - N/A   Clear
9:35 PM 50.0 °F - 33.1 °F 52% 29.97 in 10.0 mi NNE 9.2 mph - N/A   Clear
9:55 PM 48.6 °F - 33.3 °F 56% 29.98 in 10.0 mi NNE 6.9 mph - N/A   Clear
10:15 PM 47.7 °F - 33.4 °F 58% 29.99 in 10.0 mi NNE 8.1 mph - N/A   Clear
10:35 PM 47.5 °F - 33.3 °F 58% 29.99 in 10.0 mi NNE 10.4 mph - N/A   Clear
10:55 PM 47.3 °F - 33.1 °F 58% 30.00 in 10.0 mi NNE 11.5 mph - N/A   Clear
11:15 PM 46.8 °F - 32.9 °F 59% 30.01 in 10.0 mi NNE 8.1 mph - N/A   Clear
11:35 PM 45.5 °F 42.5 °F 32.9 °F 61% 30.02 in 10.0 mi NNE 5.8 mph - N/A   Clear
11:55 PM 44.6 °F 41.4 °F 33.1 °F 64% 30.03 in 10.0 mi NNE 5.8 mph - N/A   Clear